Tracking 25193 objects as of 17-Jan-2022
HD Live streaming from Space Station
objects crossing your sky now

STTW-3

Track STTW-3 now!
STTW-3 is classified as:


NORAD ID: 19710
Int'l Code: 1988-111A
Perigee: 35,762.3 km
Apogee: 35,820.4 km
Inclination: 14.9 °
Period: 1,436.0 minutes
Semi major axis: 42162 km
RCS: 6.3096 m2 (large)
Launch date: December 22, 1988
Source: People's Republic of China (PRC)
Launch site: Xichang Space Center, China (XSC)
aabbcc
Your satellite tracking list
Your tracking list is empty




NASA's NSSDC Master Catalog

Two Line Element Set (TLE):
1 19710U 88111A   22017.59703017  .00000134  00000-0  00000+0 0  9998
2 19710  14.8659 358.1740 0006885 101.7963 269.2272  1.00280412114694
Source of the keplerian elements: AFSPC